Location: Unspecified
(48.1170°N, 0.0000°E)
Time: 05:25:26
(UTC+00:00)

JY1SAT - Pass Details

Date: 21 September 2019
Orbit: 572 x 591 km, 97.7° (Epoch: 15 October)

Event Time Altitude Azimuth Distance (km) Brightness Sun altitude
Exits shadow 20:57:07 16° 17° (NNE) 1,568 ? -28.2°
Drops below altitude 10° 20:58:07 10° 8° (N) 1,897 ? -28.4°
Sets 21:00:30 0° 357° (N) 2,804 ? -28.7°
